TimeEDT,TemperatureF,Dew PointF,Humidity,Sea Level PressureIn,VisibilityMPH,Wind Direction,Wind SpeedMPH,Gust SpeedMPH,PrecipitationIn,Events,Conditions,WindDirDegrees,DateUTC
12:53 AM,57.0,54.0,89,30.21,10.0,Calm,Calm,-,N/A,,Clear,0,2013-08-24 04:53:00
1:53 AM,55.9,53.1,90,30.22,10.0,ESE,3.5,-,N/A,,Clear,110,2013-08-24 05:53:00
2:53 AM,55.9,53.1,90,30.22,10.0,Calm,Calm,-,N/A,,Clear,0,2013-08-24 06:53:00
3:53 AM,55.0,52.0,89,30.22,10.0,Calm,Calm,-,N/A,,Clear,0,2013-08-24 07:53:00
4:53 AM,55.0,52.0,89,30.23,6.0,Calm,Calm,-,N/A,,Clear,0,2013-08-24 08:53:00
5:53 AM,53.1,51.1,93,30.25,2.5,Calm,Calm,-,N/A,,Clear,0,2013-08-24 09:53:00
6:07 AM,53.6,51.8,94,30.26,5.0,Calm,Calm,-,N/A,,Clear,0,2013-08-24 10:07:00
6:53 AM,54.0,51.1,90,30.27,4.0,Calm,Calm,-,N/A,,Clear,0,2013-08-24 10:53:00
7:53 AM,57.0,55.0,93,30.30,6.0,Calm,Calm,-,N/A,,Clear,0,2013-08-24 11:53:00
8:53 AM,64.9,57.0,75,30.32,10.0,Calm,Calm,-,N/A,,Clear,0,2013-08-24 12:53:00
9:53 AM,70.0,57.9,65,30.32,10.0,Calm,Calm,-,N/A,,Clear,0,2013-08-24 13:53:00
10:53 AM,75.0,55.9,51,30.32,10.0,Calm,Calm,-,N/A,,Clear,0,2013-08-24 14:53:00
11:53 AM,79.0,55.0,44,30.32,10.0,Variable,4.6,-,N/A,,Clear,0,2013-08-24 15:53:00
12:53 PM,81.0,52.0,36,30.31,10.0,Calm,Calm,-,N/A,,Scattered Clouds,0,2013-08-24 16:53:00
1:53 PM,81.0,55.0,41,30.30,10.0,NE,8.1,-,N/A,,Partly Cloudy,40,2013-08-24 17:53:00
2:53 PM,81.0,54.0,39,30.29,10.0,Variable,5.8,-,N/A,,Clear,0,2013-08-24 18:53:00
3:53 PM,81.0,54.0,39,30.28,10.0,East,8.1,-,N/A,,Clear,100,2013-08-24 19:53:00
4:53 PM,81.0,55.0,41,30.28,10.0,ENE,8.1,-,N/A,,Clear,70,2013-08-24 20:53:00
5:53 PM,78.1,54.0,43,30.29,10.0,NE,10.4,-,N/A,,Clear,50,2013-08-24 21:53:00
6:53 PM,75.9,53.1,45,30.29,10.0,ENE,5.8,-,N/A,,Clear,60,2013-08-24 22:53:00
7:53 PM,71.1,53.1,53,30.30,10.0,ENE,5.8,-,N/A,,Clear,70,2013-08-24 23:53:00
8:53 PM,66.0,55.9,70,30.31,10.0,NE,4.6,-,N/A,,Clear,50,2013-08-25 00:53:00
9:53 PM,61.0,55.9,83,30.32,10.0,Calm,Calm,-,N/A,,Clear,0,2013-08-25 01:53:00
10:53 PM,60.1,55.0,83,30.30,10.0,Calm,Calm,-,N/A,,Clear,0,2013-08-25 02:53:00
11:53 PM,57.9,54.0,87,30.30,10.0,Calm,Calm,-,N/A,,Clear,0,2013-08-25 03:53:00